Regional Weather Roundup
Issued by NWS

Home | Current Version | Previous Version | Text Only | Print | Product List | Glossary Off
Versions: 1 2 3 4 5 6 7 8 9 10 11 12 13 14 15 16 17 18 19 20 21 22 23 24 25 26 27 28 29 30 31 32 33 34 35 36 37 38 39 40 41 42 43 44 45 46 47 48 49 50

000
ASUS43 KMPX 272301
RWRMN
WEATHER ROUNDUP FOR MINNESOTA
NATIONAL WEATHER SERVICE TWIN CITIES/CHANHASSEN MN
500 PM CST THU NOV 27 2014


NOTE: "FAIR" INDICATES FEW OR NO CLOUDS BELOW 12,000 FEET WITH NO
SIGNIFICANT WEATHER AND/OR OBSTRUCTIONS TO VISIBILITY. N/A MEANS
CURRENT SKY AND/OR WEATHER CONDITIONS ARE NOT AVAILABLE.

MNZ060>063-068>070-280000-
   Twin Cities Metro

CITY           SKY/WX    TMP DP  RH WIND       PRES   REMARKS
TWIN CITIES    PTCLDY     7  -5  57 SW7       30.41F WCI  -5
ST PAUL        CLEAR      8  -4  58 S3        30.43F
CRYSTAL        CLEAR      9  -3  58 SW5       30.39F WCI   1
BLAINE         PTCLDY     9  -2  61 CALM      30.39F
LAKEVILLE      PTCLDY     1  -6  71 CALM      30.40F
EDEN PRAIRIE   PTCLDY     5  -4  66 S6        30.39F WCI  -6
SOUTH ST PAUL  CLEAR      7  -3  62 SW5       30.41S WCI  -1
LAKE ELMO      FAIR       9   0  66 S6        30.40F WCI  -1
$$
MNZ001>005-007-008-013>017-022>024-027-028-280000-
   Northwest Minnesota

CITY           SKY/WX    TMP DP  RH WIND       PRES   REMARKS
BEMIDJI        MOCLDY     4  -5  64 E6        30.26F WCI  -6
HALLOCK        MOCLDY     5  -4  66 S15       30.26F WCI -13
ROSEAU         PTCLDY     3  -4  72 S6        30.27F WCI  -8
WARROAD        PTCLDY     3  -6  66 CALM      30.27F
THIEF RVR FALL MOCLDY     1  -2  85 SE8       30.27F WCI -12
CROOKSTON      PTCLDY     5  -2  72 S7        30.30F WCI  -7
FOSSTON        MOCLDY     1  -8  66 CALM      30.27F
DETROIT LAKES  PTCLDY     9   0  66 S8        30.26F WCI  -4
MOORHEAD       PTCLDY     9   1  72 S15       30.29F WCI  -8
PARK RAPIDS    PTCLDY     7  -5  57 S8        30.26F WCI  -6
MAHNOMEN       MOCLDY     8  -2  66 S9        30.28S WCI  -6
$$
MNZ006-009>011-018-025>026-280000-
   North Central Minnesota

CITY           SKY/WX    TMP DP  RH WIND       PRES   REMARKS
BAUDETTE       PTCLDY     2  -7  66 S5        30.28F WCI  -8
FLAG ISLAND    PTCLDY     0  -6  78 SE9       30.27F WCI -16
INTL FALLS     PTCLDY    -3  -8  79 CALM      30.31F
WASKISH        PTCLDY     1  -4  78 CALM      30.29F
BIG FORK       PTCLDY     1  -8  66 CALM      30.30F
LONGVILLE      MOCLDY     5  -4  66 CALM      30.30F
GRAND RAPIDS   CLEAR      1  -8  66 CALM      30.29F
CRANE LAKE     CLEAR     -4  -9  77 CALM      30.35S
ORR            CLEAR     -2  -9  71 CALM      30.28S
COOK           CLEAR      0  -9  65 CALM      30.31S
WALKER         FAIR       4  -3  71 CALM      30.29F
$$
MNZ012-019>021-037-280000-
   Northeast Minnesota

CITY           SKY/WX    TMP DP  RH WIND       PRES   REMARKS
DULUTH         CLEAR      5  -8  55 W3        30.30F
ELY            CLEAR     -4  -9  77 CALM      30.30S
HIBBING        CLEAR     -1 -10  65 W3        30.31S
EVELETH        CLEAR      1  -6  71 CALM      30.32S
DULUTH HARBOR  CLEAR     10  -2  56 CALM      30.39F
TWO HARBORS    CLEAR      9  -4  56 CALM      30.32S
SILVER BAY     CLEAR      7  -6  56 CALM      30.31F
GRAND MARAIS     N/A      6  -5  60 NW3       30.38S
G MARAIS ARPRT PTCLDY    -2  -9  71 W3        30.25F
$$
MNZ029>031-032-039>041-046>048-054>057-064-280000-
   West Central Minnesota

CITY           SKY/WX    TMP DP  RH WIND       PRES   REMARKS
FERGUS FALLS   PTCLDY     5  -8  56 SE10      30.31F WCI -10
WHEATON        PTCLDY     3  -2  78 SE16      30.30F WCI -16
MORRIS         PTCLDY     3  -2  78 SE15      30.28F WCI -15
ALEXANDRIA     MOCLDY     5  -3  69 SE9       30.29F WCI  -9
ELBOW LAKE     CLOUDY     4  -4  69 SE10      30.28F HAZE    WCI -11
WADENA         PTCLDY     7  -4  61 S9        30.29S WCI  -7
GLENWOOD       CLOUDY     5  -2  72 SE7       30.30F WCI  -7
APPLETON       PTCLDY     7  -2  66 SE13      30.31F WCI  -9
BENSON         MOCLDY     3  -2  78 S9        30.31F WCI -11
ORTONVILLE     CLOUDY     3  -6  66 SE14      30.28F WCI -15
MADISON        PTCLDY     9   0  66 SE14      30.30F WCI  -8
WILLMAR        FAIR       5  -2  72 SE9       30.35S WCI  -9
$$
MNZ033>034-036-042>043-049>051-058-059-280000-
   Central Minnesota

CITY           SKY/WX    TMP DP  RH WIND       PRES   REMARKS
ST CLOUD       CLEAR      7  -4  60 S6        30.35F WCI  -3
SAUK CENTRE    FAIR       4  -4  70 SE7       30.32F WCI  -8
PAYNESVILLE    MOCLDY     2  -5  71 E5        30.33F WCI  -7
AITKIN         PTCLDY     9  -2  61 SE3       30.32F
PINE RIVER     PTCLDY     7  -2  66 SE7       30.32F WCI  -5
BRAINERD       PTCLDY     5  -6  60 S3        30.32F
STAPLES        PTCLDY     5  -6  61 S7        30.29F WCI  -7
LONG PRAIRIE   FAIR       3  -6  66 SE7       30.31F WCI  -9
LITTLE FALLS   CLEAR      5  -6  61 CALM      30.34F
LITCHFIELD     MOCLDY     5   0  78 SE5       30.35F WCI  -4
BUFFALO        PTCLDY     5  -5  62 CALM      30.39F
MAPLE LAKE     PTCLDY     6  -2  70 CALM      30.38F
$$
MNZ037-044-045-052-053-280000-
   East Central Minnesota

CITY           SKY/WX    TMP DP  RH WIND       PRES   REMARKS
PRINCETON      CLEAR      9  -2  61 CALM      30.37F
MORA             N/A    N/A N/A N/A MISG        N/A
CAMBRIDGE      CLEAR      9  -2  61 CALM      30.37S
RUSH CITY      CLEAR      6  -4  60 CALM      30.39F
MOOSE LAKE     CLEAR      9  -6  52 CALM      30.34S
HINCKLEY       FAIR       9   0  66 CALM      30.38S
CLOQUET        CLEAR      3  -8  60 CALM      30.33R
MCGREGOR       PTCLDY     9  -2  61 CALM      30.33F
$$
MNZ071>073-080-081-089-090-097-098-280000-
   Southwest Minnesota

CITY           SKY/WX    TMP DP  RH WIND       PRES   REMARKS
MONTEVIDEO     MOCLDY     5  -2  72 S12       30.34F WCI -11
GRANITE FALLS  PTCLDY     3  -4  72 SE8       30.35F WCI -11
CANBY          CLOUDY     7   1  78 SE13      30.28F WCI  -9
MARSHALL       CLOUDY     7  -2  66 SE15      30.28F WCI -11
REDWOOD FALLS  PTCLDY     1  -5  75 SE10      30.35F WCI -15
OLIVIA         PTCLDY     5  -4  66 SE8       30.36F WCI  -8
PIPESTONE      CLOUDY    10   1  67 S10       30.22F WCI  -3
WINDOM         CLOUDY     3  -2  78 SE7       30.30F WCI  -9
WORTHINGTON    CLOUDY     7   0  72 SE10      30.28F WCI  -8
JACKSON        CLOUDY     5  -2  72 SE10      30.30F WCI -10
TRACY          CLOUDY    10   0  64 SE10      30.30F WCI  -4
SLAYTON        CLOUDY     9   0  66 SE12      30.27F WCI  -6
$$
MNZ065>067-074>077-082>085-091>093-280000-
   South Central Minnesota

CITY           SKY/WX    TMP DP  RH WIND       PRES   REMARKS
MANKATO        PTCLDY    -2 -11  65 SE7       30.38F WCI -16
NEW ULM        PTCLDY     0  -8  71 SE6       30.37F WCI -12
ST JAMES       PTCLDY     0  -6  78 SE6       30.38F WCI -12
FAIRMONT       PTCLDY    -2  -8  78 SE7       30.34F WCI -16
GLENCOE        MOCLDY     3  -2  79 CALM      30.38F
FARIBAULT      PTCLDY     1  -8  66 CALM      30.40S
OWATONNA       PTCLDY    -8 -13  77 S3        30.38F
WASECA         PTCLDY    -6 -13  71 CALM      30.40F
ALBERT LEA     PTCLDY     0  -6  78 SE2       30.37F
$$
MNZ078>079-086>088-094>096-280000-
   Southeast Minnesota

CITY           SKY/WX    TMP DP  RH WIND       PRES   REMARKS
ROCHESTER      MOCLDY    -1  -8  72 W5        30.37F WCI -11
RED WING       PTCLDY     7  -2  66 CALM      30.41F
STANTON        PTCLDY     2  -6  70 CALM      30.40S
DODGE CENTER   MOCLDY    -4  -9  77 CALM      30.36F
WINONA         CLEAR     10   1  67 CALM      30.44F
AUSTIN         PTCLDY    -2  -8  78 CALM      30.37F
PRESTON        MOCLDY     3  -4  71 CALM      30.38F
$$
ABBREVIATIONS USED IN REMARKS
   TC - TEMPERATURES IN CELSIUS
  WCI - WIND CHILL INDEX
   HX - HEAT INDEX
  VSB - VISIBILITY
$$



USA.gov is the U.S. government's official web portal to all federal, state and local government web resources and services.